Location: Bouysse
(45.3674°N, 1.8947°E)
Time: 16:34:47
(UTC+00:00)

Lacrosse 5 rocket - Pass Details

Date: 07 June 2020
Orbit: 462 x 635 km, 57.0° (Epoch: 08 July)

Event Time Altitude Azimuth Distance (km) Brightness Sun altitude
Exits shadow 03:17:39 - 195° (SSW) 2,191 3.9 -7.3°
Reaches altitude 10° 03:18:45 10° 189° (S) 1,793 3.5 -7.1°
Maximum altitude 03:22:14 28° 129° (SE) 995 2.7 -6.7°
Drops below altitude 10° 03:25:34 10° 69° (ENE) 1,716 5.2 -6.3°
Sets 03:27:53 0° 58° (ENE) 2,575 7.0 -6.0°
